Location: Rounton
(54.4000°N, 1.3500°W)
Time: 22:20:41
(UTC+00:00)

deb Explorer IX - Pass Details

Date: 18 December 2021
Orbit: 544 x 1082 km, 38.8° (Epoch: 27 January)

Event Time Altitude Azimuth Distance (km) Brightness Sun altitude
Exits shadow 06:05:36 - 227° (SW) 3,222 ? -18.3°
Reaches altitude 10° 06:07:22 10° 218° (SW) 2,751 ? -18.1°
Maximum altitude 06:11:42 18° 177° (S) 2,092 ? -17.5°
Drops below altitude 10° 06:15:43 10° 136° (SE) 2,517 ? -16.9°
Sets 06:18:51 0° 118° (ESE) 3,345 ? -16.5°
